ASA546 KSAN-MMSD

Flight info

Callsign ASA546
Flight time 1h 49m
Altitude 39000
Route ZZOOO4 CENZA DCT TIJ UT6 IMUSU UT25 LTO/N0388F170 V4 ENEKO ENEKO1B
Aircraft B739/M-SDE2E3FGHIRWXY/LB1

Departure

Time 2026-05-06 01:37
Airport San Diego International Airport (KSAN)

Arrival

Time 2026-05-06 03:27
Airport Los Cabos International Airport (MMSD)
Time Latitude Longitude Altitude Speed Heading
2026-05-06 01:17 32.73348 -117.20065 20 ft 0 kts 262°
2026-05-06 01:29 32.73349 -117.20060 21 ft 4 kts 262°
2026-05-06 01:29 32.73352 -117.20028 20 ft 4 kts 266°
2026-05-06 01:30 32.73351 -117.19997 21 ft 4 kts 291°
2026-05-06 01:30 32.73342 -117.19982 21 ft 2 kts 10°
2026-05-06 01:30 32.73341 -117.19983 21 ft 1 kts 11°
2026-05-06 01:32 32.73347 -117.19981 23 ft 4 kts 12°
2026-05-06 01:33 32.73412 -117.19965 21 ft 14 kts 12°
2026-05-06 01:33 32.73475 -117.19883 23 ft 17 kts 99°
2026-05-06 01:33 32.73438 -117.19723 24 ft 23 kts 106°
2026-05-06 01:33 32.73394 -117.19540 23 ft 24 kts 106°
2026-05-06 01:34 32.73345 -117.19340 21 ft 26 kts 105°
2026-05-06 01:34 32.73295 -117.19135 20 ft 25 kts 105°
2026-05-06 01:34 32.73249 -117.18942 21 ft 23 kts 106°
2026-05-06 01:34 32.73205 -117.18761 23 ft 23 kts 106°
2026-05-06 01:35 32.73161 -117.18580 23 ft 24 kts 105°
2026-05-06 01:35 32.73112 -117.18377 22 ft 27 kts 106°
2026-05-06 01:35 32.73057 -117.18154 20 ft 30 kts 107°
2026-05-06 01:35 32.72998 -117.17909 18 ft 32 kts 106°
2026-05-06 01:36 32.72958 -117.17663 17 ft 25 kts 76°
2026-05-06 01:36 32.73005 -117.17586 19 ft 9 kts 347°
2026-05-06 01:36 32.73040 -117.17664 18 ft 18 kts 287°
2026-05-06 01:36 32.73158 -117.18150 18 ft 105 kts 286°
2026-05-06 01:37 32.73430 -117.19269 98 ft 168 kts 287°
2026-05-06 01:37 32.73770 -117.20649 915 ft 176 kts 286°
2026-05-06 01:37 32.74105 -117.22046 1929 ft 183 kts 286°
2026-05-06 01:37 32.74481 -117.23611 2304 ft 211 kts 286°
2026-05-06 01:38 32.74906 -117.25373 2760 ft 228 kts 286°
2026-05-06 01:38 32.75350 -117.27208 3485 ft 235 kts 286°
2026-05-06 01:38 32.75801 -117.29074 4415 ft 235 kts 286°
2026-05-06 01:38 32.76254 -117.30947 5323 ft 237 kts 286°
2026-05-06 01:39 32.76522 -117.32887 6156 ft 242 kts 264°
2026-05-06 01:39 32.75948 -117.34756 6993 ft 246 kts 236°
2026-05-06 01:39 32.74757 -117.36066 7753 ft 254 kts 210°
2026-05-06 01:39 32.73047 -117.36635 8526 ft 262 kts 182°
2026-05-06 01:40 32.71260 -117.36140 9304 ft 270 kts 152°
2026-05-06 01:40 32.69806 -117.34713 10090 ft 275 kts 132°
2026-05-06 01:40 32.68602 -117.32915 10830 ft 281 kts 128°
2026-05-06 01:40 32.67423 -117.31053 11586 ft 284 kts 128°
2026-05-06 01:41 32.66210 -117.29179 12317 ft 288 kts 129°
2026-05-06 01:41 32.64961 -117.27296 13059 ft 292 kts 130°
2026-05-06 01:41 32.63692 -117.25402 13771 ft 295 kts 129°
2026-05-06 01:41 32.62622 -117.23300 14347 ft 306 kts 112°
2026-05-06 01:42 32.61883 -117.20836 14542 ft 329 kts 109°
2026-05-06 01:42 32.61165 -117.18321 14719 ft 351 kts 109°
2026-05-06 01:42 32.60333 -117.15508 14885 ft 372 kts 110°
2026-05-06 01:42 32.59427 -117.12538 15050 ft 392 kts 110°
2026-05-06 01:43 32.58462 -117.09425 15212 ft 410 kts 110°
2026-05-06 01:43 32.57453 -117.06224 15685 ft 418 kts 111°
2026-05-06 01:43 32.56429 -117.02989 16317 ft 420 kts 111°
2026-05-06 01:43 32.55396 -116.99736 16916 ft 423 kts 112°
2026-05-06 01:44 32.54105 -116.96648 17450 ft 426 kts 123°
2026-05-06 01:44 32.52318 -116.93827 18004 ft 428 kts 133°
2026-05-06 01:44 32.50159 -116.91407 18532 ft 430 kts 142°
2026-05-06 01:44 32.47822 -116.89182 19069 ft 433 kts 144°
2026-05-06 01:45 32.45447 -116.86949 19542 ft 437 kts 144°
2026-05-06 01:45 32.43056 -116.84697 20022 ft 441 kts 144°
2026-05-06 01:45 32.40655 -116.82418 20544 ft 444 kts 144°
2026-05-06 01:45 32.38239 -116.80108 21032 ft 448 kts 145°
2026-05-06 01:46 32.35809 -116.77777 21473 ft 452 kts 145°
2026-05-06 01:46 32.33360 -116.75423 21963 ft 455 kts 146°
2026-05-06 01:46 32.30894 -116.73058 22386 ft 459 kts 146°
2026-05-06 01:46 32.28398 -116.70662 22835 ft 462 kts 146°
2026-05-06 01:47 32.25901 -116.68260 23270 ft 465 kts 147°
2026-05-06 01:47 32.23383 -116.65839 23689 ft 468 kts 147°
2026-05-06 01:47 32.20846 -116.63403 24086 ft 472 kts 148°
2026-05-06 01:47 32.18298 -116.60963 24542 ft 473 kts 148°
2026-05-06 01:48 32.15763 -116.58548 24911 ft 476 kts 149°
2026-05-06 01:48 32.13190 -116.56062 25254 ft 480 kts 149°
2026-05-06 01:48 32.10623 -116.53524 25610 ft 483 kts 148°
2026-05-06 01:48 32.08052 -116.50942 25938 ft 489 kts 147°
2026-05-06 01:49 32.05496 -116.48294 26313 ft 486 kts 150°
2026-05-06 01:49 32.02907 -116.45733 26739 ft 488 kts 149°
2026-05-06 01:49 32.00305 -116.43146 26985 ft 491 kts 150°
2026-05-06 01:49 31.97667 -116.40556 27208 ft 495 kts 151°
2026-05-06 01:50 31.95019 -116.37958 27550 ft 496 kts 151°
2026-05-06 01:50 31.92374 -116.35350 28021 ft 494 kts 151°
2026-05-06 01:50 31.89757 -116.32759 28604 ft 489 kts 152°
2026-05-06 01:50 31.87161 -116.30186 29087 ft 487 kts 152°
2026-05-06 01:51 31.84564 -116.27631 29434 ft 486 kts 153°
2026-05-06 01:51 31.81952 -116.25086 29750 ft 489 kts 153°
2026-05-06 01:51 31.79349 -116.22499 30211 ft 488 kts 152°
2026-05-06 01:51 31.76770 -116.19933 30692 ft 485 kts 153°
2026-05-06 01:52 31.74186 -116.17385 31114 ft 483 kts 153°
2026-05-06 01:52 31.71575 -116.14931 31512 ft 478 kts 155°
2026-05-06 01:52 31.68940 -116.12573 31974 ft 474 kts 156°
2026-05-06 01:52 31.66300 -116.10258 32383 ft 473 kts 156°
2026-05-06 01:53 31.63659 -116.07954 32708 ft 473 kts 156°
2026-05-06 01:53 31.61019 -116.05643 33062 ft 473 kts 156°
2026-05-06 01:53 31.58401 -116.03335 33573 ft 469 kts 156°
2026-05-06 01:53 31.55808 -116.01036 33979 ft 467 kts 156°
2026-05-06 01:54 31.53216 -115.98736 34241 ft 468 kts 156°
2026-05-06 01:54 31.50650 -115.96463 34437 ft 470 kts 156°
2026-05-06 01:54 31.48052 -115.94156 34844 ft 467 kts 156°
2026-05-06 01:54 31.45471 -115.91863 35191 ft 465 kts 155°
2026-05-06 01:55 31.42893 -115.89565 35486 ft 466 kts 156°
2026-05-06 01:55 31.40303 -115.87275 35689 ft 467 kts 156°
2026-05-06 01:55 31.37724 -115.84999 35881 ft 469 kts 155°
2026-05-06 01:55 31.35117 -115.82700 36075 ft 469 kts 155°
2026-05-06 01:56 31.32515 -115.80403 36373 ft 468 kts 155°
2026-05-06 01:56 31.29922 -115.78111 36617 ft 467 kts 155°
2026-05-06 01:56 31.27336 -115.75823 36983 ft 463 kts 155°
2026-05-06 01:56 31.24780 -115.73561 37331 ft 460 kts 155°
2026-05-06 01:57 31.22224 -115.71324 37578 ft 458 kts 156°
2026-05-06 01:57 31.19681 -115.69107 37838 ft 455 kts 156°
2026-05-06 01:57 31.17145 -115.66886 37982 ft 457 kts 156°
2026-05-06 01:57 31.14604 -115.64646 38140 ft 458 kts 155°
2026-05-06 01:58 31.12067 -115.62399 38304 ft 458 kts 155°
2026-05-06 01:58 31.09519 -115.60154 38549 ft 457 kts 155°
2026-05-06 01:58 31.06982 -115.57919 38743 ft 456 kts 155°
2026-05-06 01:58 31.04478 -115.55716 38874 ft 457 kts 155°
2026-05-06 01:59 30.99393 -115.51253 38937 ft 457 kts 155°
2026-05-06 01:59 30.94316 -115.46813 38937 ft 455 kts 156°
2026-05-06 02:00 30.89262 -115.42394 38942 ft 453 kts 156°
2026-05-06 02:00 30.84221 -115.37997 38936 ft 452 kts 156°
2026-05-06 02:01 30.79197 -115.33590 38937 ft 453 kts 155°
2026-05-06 02:01 30.74250 -115.29036 38940 ft 454 kts 154°
2026-05-06 02:02 30.69357 -115.24474 38937 ft 453 kts 155°
2026-05-06 02:02 30.64432 -115.19908 38940 ft 453 kts 155°
2026-05-06 02:03 30.59499 -115.15358 38946 ft 453 kts 155°
2026-05-06 02:03 30.54575 -115.10743 38947 ft 454 kts 155°
2026-05-06 02:04 30.49633 -115.06213 38944 ft 452 kts 156°
2026-05-06 02:04 30.44685 -115.01737 38948 ft 451 kts 156°
2026-05-06 02:05 30.39752 -114.97246 38943 ft 451 kts 156°
2026-05-06 02:05 30.34890 -114.92682 38943 ft 453 kts 156°
2026-05-06 02:06 30.29927 -114.88264 38938 ft 450 kts 156°
2026-05-06 02:06 30.24998 -114.83798 38943 ft 449 kts 156°
2026-05-06 02:07 30.20101 -114.79326 38938 ft 448 kts 156°
2026-05-06 02:07 30.15252 -114.74802 38946 ft 446 kts 156°
2026-05-06 02:08 30.10377 -114.70412 38944 ft 444 kts 157°
2026-05-06 02:08 30.05561 -114.66088 38944 ft 441 kts 157°
2026-05-06 02:09 30.00764 -114.61774 38942 ft 439 kts 158°
2026-05-06 02:09 29.96072 -114.57556 38956 ft 440 kts 156°
2026-05-06 02:10 29.91317 -114.53143 38942 ft 437 kts 158°
2026-05-06 02:10 29.86522 -114.48862 38942 ft 436 kts 158°
2026-05-06 02:11 29.81726 -114.44577 38947 ft 436 kts 158°
2026-05-06 02:11 29.76941 -114.40281 38943 ft 436 kts 158°
2026-05-06 02:12 29.72152 -114.35977 38944 ft 437 kts 158°
2026-05-06 02:12 29.67359 -114.31670 38946 ft 437 kts 158°
2026-05-06 02:13 29.62573 -114.27316 38958 ft 438 kts 158°
2026-05-06 02:13 29.57754 -114.23023 38950 ft 439 kts 158°
2026-05-06 02:14 29.52919 -114.18724 38944 ft 440 kts 158°
2026-05-06 02:14 29.48064 -114.14397 38947 ft 444 kts 158°
2026-05-06 02:15 29.43191 -114.10051 38940 ft 448 kts 158°
2026-05-06 02:15 29.38225 -114.05616 38946 ft 451 kts 158°
2026-05-06 02:16 29.33302 -114.01225 38942 ft 451 kts 157°
2026-05-06 02:16 29.28341 -113.96818 38947 ft 452 kts 157°
2026-05-06 02:17 29.23383 -113.92374 38932 ft 453 kts 156°
2026-05-06 02:17 29.18425 -113.87988 38941 ft 451 kts 158°
2026-05-06 02:18 29.13464 -113.83603 38948 ft 450 kts 157°
2026-05-06 02:18 29.08516 -113.79223 38941 ft 450 kts 157°
2026-05-06 02:19 29.03566 -113.74855 38942 ft 449 kts 157°
2026-05-06 02:19 28.98619 -113.70484 38952 ft 450 kts 157°
2026-05-06 02:20 28.91276 -113.64007 38946 ft 451 kts 157°
2026-05-06 02:21 28.86340 -113.59659 38943 ft 451 kts 157°
2026-05-06 02:21 28.81368 -113.55287 38944 ft 451 kts 157°
2026-05-06 02:22 28.76399 -113.50919 38944 ft 451 kts 157°
2026-05-06 02:22 28.71424 -113.46553 38951 ft 452 kts 157°
2026-05-06 02:23 28.66442 -113.42179 38937 ft 452 kts 157°
2026-05-06 02:23 28.61458 -113.37820 38944 ft 452 kts 157°
2026-05-06 02:24 28.57311 -113.34195 38947 ft 453 kts 157°
2026-05-06 02:24 28.52317 -113.29840 38951 ft 452 kts 157°
2026-05-06 02:25 28.47322 -113.25486 38942 ft 451 kts 158°
2026-05-06 02:25 28.42441 -113.21272 38945 ft 451 kts 156°
2026-05-06 02:26 28.37467 -113.16917 38953 ft 451 kts 156°
2026-05-06 02:26 28.32481 -113.12574 38951 ft 452 kts 156°
2026-05-06 02:27 28.27497 -113.08243 38948 ft 450 kts 157°
2026-05-06 02:27 28.22559 -113.03964 38950 ft 449 kts 156°
2026-05-06 02:28 28.17605 -112.99661 38950 ft 448 kts 157°
2026-05-06 02:28 28.12643 -112.95375 38940 ft 449 kts 157°
2026-05-06 02:29 28.07677 -112.91105 38951 ft 449 kts 156°
2026-05-06 02:29 28.02728 -112.86809 38947 ft 447 kts 157°
2026-05-06 02:30 27.97760 -112.82573 38941 ft 449 kts 156°
2026-05-06 02:30 27.92801 -112.78256 38958 ft 450 kts 156°
2026-05-06 02:31 27.87815 -112.73962 38960 ft 451 kts 156°
2026-05-06 02:31 27.82814 -112.69676 38955 ft 450 kts 156°
2026-05-06 02:32 27.77865 -112.65434 38949 ft 449 kts 156°
2026-05-06 02:32 27.73063 -112.61318 38951 ft 447 kts 156°
2026-05-06 02:33 27.68106 -112.57077 38955 ft 447 kts 156°
2026-05-06 02:33 27.66435 -112.55649 38952 ft 447 kts 156°
2026-05-06 02:34 27.58240 -112.48628 38943 ft 447 kts 156°
2026-05-06 02:34 27.53335 -112.44475 38953 ft 447 kts 156°
2026-05-06 02:35 27.48379 -112.40246 38971 ft 447 kts 156°
2026-05-06 02:35 27.43404 -112.36013 38956 ft 447 kts 156°
2026-05-06 02:36 27.38429 -112.31784 38959 ft 449 kts 156°
2026-05-06 02:36 27.33477 -112.27577 38956 ft 450 kts 156°
2026-05-06 02:37 27.28334 -112.23726 38961 ft 440 kts 161°
2026-05-06 02:37 27.23087 -112.20191 38946 ft 440 kts 162°
2026-05-06 02:38 27.17825 -112.16638 38958 ft 441 kts 161°
2026-05-06 02:38 27.12594 -112.13053 38970 ft 443 kts 161°
2026-05-06 02:39 27.07342 -112.09434 38972 ft 444 kts 161°
2026-05-06 02:39 27.02078 -112.05806 38974 ft 444 kts 161°
2026-05-06 02:40 26.96804 -112.02180 38986 ft 445 kts 161°
2026-05-06 02:40 26.91556 -111.98577 38984 ft 445 kts 160°
2026-05-06 02:41 26.86264 -111.94952 38987 ft 446 kts 160°
2026-05-06 02:41 26.80958 -111.91311 38987 ft 447 kts 160°
2026-05-06 02:42 26.75645 -111.87673 38988 ft 448 kts 160°
2026-05-06 02:42 26.70312 -111.84026 38987 ft 449 kts 160°
2026-05-06 02:43 26.64974 -111.80380 38977 ft 450 kts 160°
2026-05-06 02:43 26.59627 -111.76731 38984 ft 450 kts 160°
2026-05-06 02:44 26.54270 -111.73078 38987 ft 451 kts 160°
2026-05-06 02:44 26.48914 -111.69428 38992 ft 451 kts 159°
2026-05-06 02:45 26.43548 -111.65795 38989 ft 451 kts 160°
2026-05-06 02:45 26.38219 -111.62174 38987 ft 451 kts 160°
2026-05-06 02:46 26.32862 -111.58532 38993 ft 451 kts 160°
2026-05-06 02:46 26.27500 -111.54894 38988 ft 452 kts 160°
2026-05-06 02:47 26.22130 -111.51249 38993 ft 452 kts 159°
2026-05-06 02:47 26.16756 -111.47598 38989 ft 452 kts 159°
2026-05-06 02:48 26.11373 -111.43959 38994 ft 452 kts 159°
2026-05-06 02:48 26.05990 -111.40324 38989 ft 452 kts 159°
2026-05-06 02:49 26.00644 -111.36717 38988 ft 452 kts 159°
2026-05-06 02:49 25.95606 -111.32301 38989 ft 474 kts 143°
2026-05-06 02:50 25.91086 -111.26921 38989 ft 477 kts 142°
2026-05-06 02:50 25.86573 -111.21511 38986 ft 478 kts 143°
2026-05-06 02:51 25.82015 -111.16129 38993 ft 478 kts 143°
2026-05-06 02:51 25.77432 -111.10766 38993 ft 479 kts 143°
2026-05-06 02:52 25.72849 -111.05395 38994 ft 480 kts 143°
2026-05-06 02:52 25.68290 -111.00053 38989 ft 480 kts 143°
2026-05-06 02:53 25.63695 -110.94689 38991 ft 480 kts 143°
2026-05-06 02:53 25.59094 -110.89325 38992 ft 480 kts 143°
2026-05-06 02:54 25.54485 -110.83959 38996 ft 480 kts 143°
2026-05-06 02:54 25.49877 -110.78599 38992 ft 480 kts 143°
2026-05-06 02:55 25.45262 -110.73237 38987 ft 481 kts 143°
2026-05-06 02:55 25.40652 -110.67887 38980 ft 480 kts 143°
2026-05-06 02:56 25.36040 -110.62540 38980 ft 480 kts 143°
2026-05-06 02:56 25.31518 -110.57302 38982 ft 480 kts 143°
2026-05-06 02:57 25.26902 -110.51964 38982 ft 480 kts 143°
2026-05-06 02:57 25.22313 -110.46666 38983 ft 480 kts 143°
2026-05-06 02:58 25.17700 -110.41343 38979 ft 480 kts 143°
2026-05-06 02:58 25.13090 -110.36027 38980 ft 479 kts 143°
2026-05-06 02:59 25.08474 -110.30709 38972 ft 479 kts 142°
2026-05-06 02:59 25.03861 -110.25402 38971 ft 479 kts 142°
2026-05-06 03:00 24.99244 -110.20097 38973 ft 479 kts 142°
2026-05-06 03:00 24.94632 -110.14803 38972 ft 479 kts 142°
2026-05-06 03:01 24.90020 -110.09515 38972 ft 479 kts 142°
2026-05-06 03:01 24.85403 -110.04230 38972 ft 478 kts 142°
2026-05-06 03:02 24.80818 -109.98985 38988 ft 478 kts 142°
2026-05-06 03:02 24.76208 -109.93718 38991 ft 478 kts 142°
2026-05-06 03:03 24.71593 -109.88452 38988 ft 478 kts 142°
2026-05-06 03:03 24.66976 -109.83188 38990 ft 478 kts 142°
2026-05-06 03:04 24.62357 -109.77928 38987 ft 478 kts 142°
2026-05-06 03:04 24.57730 -109.72666 38997 ft 478 kts 142°
2026-05-06 03:05 24.53104 -109.67409 38986 ft 478 kts 142°
2026-05-06 03:05 24.48569 -109.62250 38578 ft 461 kts 142°
2026-05-06 03:05 24.46352 -109.59734 37982 ft 457 kts 142°
2026-05-06 03:06 24.44143 -109.57234 37052 ft 456 kts 142°
2026-05-06 03:06 24.41958 -109.54765 36008 ft 457 kts 142°
2026-05-06 03:06 24.39738 -109.52255 34894 ft 459 kts 142°
2026-05-06 03:06 24.37507 -109.49734 33646 ft 462 kts 142°
2026-05-06 03:07 24.35254 -109.47202 32367 ft 463 kts 144°
2026-05-06 03:07 24.32707 -109.45167 30919 ft 446 kts 162°
2026-05-06 03:07 24.29814 -109.44133 29463 ft 434 kts 176°
2026-05-06 03:07 24.26841 -109.43845 27962 ft 426 kts 187°
2026-05-06 03:08 24.23938 -109.44315 26450 ft 421 kts 197°
2026-05-06 03:08 24.21090 -109.45058 24981 ft 420 kts 197°
2026-05-06 03:08 24.18253 -109.45830 23536 ft 420 kts 197°
2026-05-06 03:08 24.15422 -109.46594 22158 ft 418 kts 197°
2026-05-06 03:09 24.12612 -109.47337 21049 ft 410 kts 196°
2026-05-06 03:09 24.09889 -109.48042 20266 ft 395 kts 196°
2026-05-06 03:09 24.07257 -109.48715 19530 ft 381 kts 196°
2026-05-06 03:09 24.04714 -109.49364 18819 ft 370 kts 195°
2026-05-06 03:10 24.02231 -109.49997 18132 ft 362 kts 195°
2026-05-06 03:10 23.99791 -109.50620 17465 ft 361 kts 195°
2026-05-06 03:10 23.97297 -109.51259 16793 ft 377 kts 195°
2026-05-06 03:10 23.94692 -109.51924 16062 ft 387 kts 195°
2026-05-06 03:11 23.92102 -109.52580 15327 ft 375 kts 194°
2026-05-06 03:11 23.89592 -109.52859 14860 ft 361 kts 179°
2026-05-06 03:11 23.87150 -109.52579 14625 ft 350 kts 176°
2026-05-06 03:11 23.84670 -109.52256 14383 ft 366 kts 176°
2026-05-06 03:12 23.82095 -109.51922 14117 ft 379 kts 176°
2026-05-06 03:12 23.79433 -109.51585 13837 ft 389 kts 176°
2026-05-06 03:12 23.76729 -109.51248 13548 ft 392 kts 176°
2026-05-06 03:12 23.74022 -109.50915 13267 ft 392 kts 176°
2026-05-06 03:13 23.71305 -109.50584 13003 ft 391 kts 176°
2026-05-06 03:13 23.69525 -109.50369 12811 ft 388 kts 176°
2026-05-06 03:13 23.66850 -109.50046 12540 ft 386 kts 176°
2026-05-06 03:13 23.63267 -109.49617 12169 ft 387 kts 176°
2026-05-06 03:14 23.61498 -109.49405 11982 ft 387 kts 176°
2026-05-06 03:14 23.58823 -109.49084 11703 ft 386 kts 176°
2026-05-06 03:14 23.56191 -109.48768 11427 ft 374 kts 176°
2026-05-06 03:14 23.53640 -109.48461 11167 ft 362 kts 176°
2026-05-06 03:15 23.51171 -109.48165 10908 ft 351 kts 176°
2026-05-06 03:15 23.48792 -109.48230 10636 ft 337 kts 194°
2026-05-06 03:15 23.46561 -109.48825 10450 ft 325 kts 195°
2026-05-06 03:15 23.44385 -109.49402 10214 ft 318 kts 195°
2026-05-06 03:16 23.42260 -109.49952 9983 ft 310 kts 195°
2026-05-06 03:16 23.40203 -109.50478 9975 ft 296 kts 195°
2026-05-06 03:16 23.38239 -109.50976 9803 ft 288 kts 195°
2026-05-06 03:16 23.36296 -109.51470 9445 ft 289 kts 195°
2026-05-06 03:17 23.34323 -109.51970 9182 ft 285 kts 195°
2026-05-06 03:17 23.32438 -109.52447 8979 ft 280 kts 195°
2026-05-06 03:17 23.30549 -109.52923 8780 ft 278 kts 195°
2026-05-06 03:17 23.28664 -109.53399 8565 ft 278 kts 195°
2026-05-06 03:18 23.26779 -109.53872 8389 ft 277 kts 195°
2026-05-06 03:18 23.24896 -109.54345 8181 ft 277 kts 194°
2026-05-06 03:18 23.23017 -109.54816 7988 ft 278 kts 194°
2026-05-06 03:18 23.21118 -109.55293 7705 ft 282 kts 195°
2026-05-06 03:19 23.19196 -109.55775 7421 ft 284 kts 195°
2026-05-06 03:19 23.17270 -109.56257 7133 ft 283 kts 194°
2026-05-06 03:19 23.15359 -109.56735 6839 ft 280 kts 194°
2026-05-06 03:19 23.13469 -109.57208 6545 ft 278 kts 195°
2026-05-06 03:20 23.09734 -109.58142 6002 ft 273 kts 195°
2026-05-06 03:20 23.07885 -109.58611 5739 ft 274 kts 195°
2026-05-06 03:20 23.06073 -109.59066 5431 ft 273 kts 194°
2026-05-06 03:21 23.04233 -109.59522 5161 ft 270 kts 195°
2026-05-06 03:21 23.02405 -109.59977 4888 ft 268 kts 195°
2026-05-06 03:21 23.00623 -109.60425 4625 ft 265 kts 197°
2026-05-06 03:21 22.98995 -109.61330 4326 ft 258 kts 227°
2026-05-06 03:22 22.98042 -109.62920 4078 ft 250 kts 252°
2026-05-06 03:22 22.97692 -109.64740 3818 ft 245 kts 265°
2026-05-06 03:22 22.97526 -109.66548 3555 ft 243 kts 269°
2026-05-06 03:22 22.97807 -109.68311 3274 ft 237 kts 298°
2026-05-06 03:23 22.98832 -109.69631 3042 ft 225 kts 324°
2026-05-06 03:23 23.00205 -109.70348 2811 ft 216 kts 346°
2026-05-06 03:23 23.01660 -109.70558 2622 ft 204 kts 352°
2026-05-06 03:23 23.03031 -109.70706 2403 ft 192 kts 352°
2026-05-06 03:24 23.04305 -109.70845 2205 ft 177 kts 352°
2026-05-06 03:24 23.05506 -109.70977 2010 ft 170 kts 352°
2026-05-06 03:24 23.06625 -109.71102 1832 ft 153 kts 353°
2026-05-06 03:24 23.07612 -109.71212 1611 ft 149 kts 353°
2026-05-06 03:25 23.08638 -109.71330 1410 ft 147 kts 353°
2026-05-06 03:25 23.09653 -109.71445 1201 ft 146 kts 354°
2026-05-06 03:25 23.10664 -109.71560 1011 ft 146 kts 354°
2026-05-06 03:25 23.11674 -109.71674 819 ft 146 kts 354°
2026-05-06 03:26 23.12675 -109.71789 610 ft 142 kts 354°
2026-05-06 03:26 23.13647 -109.71896 414 ft 140 kts 354°
2026-05-06 03:26 23.14566 -109.71999 371 ft 126 kts 354°
2026-05-06 03:26 23.15247 -109.72079 370 ft 51 kts 354°
2026-05-06 03:27 23.15493 -109.72033 371 ft 22 kts 23°
2026-05-06 03:27 23.15624 -109.71969 370 ft 15 kts 33°
2026-05-06 03:27 23.15637 -109.71926 370 ft 5 kts 118°
2026-05-06 03:27 23.15629 -109.71920 370 ft 0 kts 149°
2026-05-06 03:29 23.15620 -109.71845 370 ft 22 kts 63°
2026-05-06 03:29 23.15634 -109.71790 370 ft 0 kts 82°
2026-05-06 03:32 23.15635 -109.71780 2370 ft 188 kts 82°
2026-05-06 03:32 23.15828 -109.70358 1202 ft 259 kts 82°
2026-05-06 03:32 23.15683 -109.68593 988 ft 279 kts 142°
2026-05-06 03:33 23.14080 -109.68764 1673 ft 253 kts 215°